Time,TemperatureF,DewpointF,PressureIn,WindDirection,WindDirectionDegrees,WindSpeedMPH,WindSpeedGustMPH,Humidity,HourlyPrecipIn,Conditions,Clouds,dailyrainin,SoftwareType,DateUTC
2013-06-13 00:00:00,53.1,23.0,30.12,WSW,239,0.0,0.0,31,0.00,,,0.00,WUHU216WMR968SP,2013-06-13 07:00:00,
2013-06-13 00:05:00,52.9,24.3,30.12,WSW,239,0.0,0.0,33,0.00,,,0.00,WUHU216WMR968SP,2013-06-13 07:05:00,
2013-06-13 00:10:00,52.7,24.9,30.12,WSW,239,0.0,0.0,34,0.00,,,0.00,WUHU216WMR968SP,2013-06-13 07:10:00,
2013-06-13 00:15:00,52.5,24.7,30.12,WSW,239,0.0,0.0,34,0.00,,,0.00,WUHU216WMR968SP,2013-06-13 07:15:00,
2013-06-13 00:20:00,52.5,26.1,30.12,WSW,239,0.0,0.0,36,0.00,,,0.00,WUHU216WMR968SP,2013-06-13 07:20:00,
2013-06-13 00:25:00,52.3,25.9,30.12,WSW,239,0.0,0.0,36,0.00,,,0.00,WUHU216WMR968SP,2013-06-13 07:25:00,
2013-06-13 00:30:00,52.2,25.8,30.12,WSW,239,0.0,0.0,36,0.00,,,0.00,WUHU216WMR968SP,2013-06-13 07:30:00,
2013-06-13 00:35:00,52.2,25.8,30.12,WSW,239,0.0,0.0,36,0.00,,,0.00,WUHU216WMR968SP,2013-06-13 07:35:00,
2013-06-13 00:40:00,52.3,25.9,30.12,WSW,239,0.0,0.0,36,0.00,,,0.00,WUHU216WMR968SP,2013-06-13 07:40:00,
2013-06-13 00:45:00,52.3,25.9,30.12,WSW,239,0.0,0.0,36,0.00,,,0.00,WUHU216WMR968SP,2013-06-13 07:45:00,
2013-06-13 00:50:00,52.2,26.5,30.12,WSW,239,0.0,0.0,37,0.00,,,0.00,WUHU216WMR968SP,2013-06-13 07:50:00,
2013-06-13 00:55:00,52.0,26.3,30.12,WSW,239,0.0,0.0,37,0.00,,,0.00,WUHU216WMR968SP,2013-06-13 07:55:00,
2013-06-13 01:00:00,52.0,26.3,30.12,WSW,239,0.0,0.0,37,0.00,,,0.00,WUHU216WMR968SP,2013-06-13 08:00:00,
2013-06-13 01:05:00,52.2,25.8,30.12,WSW,239,0.0,0.0,36,0.00,,,0.00,WUHU216WMR968SP,2013-06-13 08:05:00,
2013-06-13 01:10:00,52.2,25.8,30.12,WSW,239,0.0,0.0,36,0.00,,,0.00,WUHU216WMR968SP,2013-06-13 08:10:00,
2013-06-13 01:15:00,52.3,25.2,30.12,WSW,239,0.0,0.0,35,0.00,,,0.00,WUHU216WMR968SP,2013-06-13 08:15:00,
2013-06-13 01:20:00,52.3,24.5,30.12,WSW,239,0.0,0.0,34,0.00,,,0.00,WUHU216WMR968SP,2013-06-13 08:20:00,
2013-06-13 01:25:00,52.3,23.8,30.12,WSW,239,0.0,0.0,33,0.00,,,0.00,WUHU216WMR968SP,2013-06-13 08:25:00,
2013-06-13 01:30:00,52.2,25.8,30.12,WSW,239,0.0,0.0,36,0.00,,,0.00,WUHU216WMR968SP,2013-06-13 08:30:00,
2013-06-13 01:35:00,51.8,26.1,30.12,WSW,239,0.0,0.0,37,0.00,,,0.00,WUHU216WMR968SP,2013-06-13 08:35:00,
2013-06-13 01:40:00,51.6,25.9,30.12,WSW,239,0.0,0.0,37,0.00,,,0.00,WUHU216WMR968SP,2013-06-13 08:40:00,
2013-06-13 01:45:00,51.4,25.8,30.12,WSW,239,0.0,0.0,37,0.00,,,0.00,WUHU216WMR968SP,2013-06-13 08:45:00,
2013-06-13 01:50:00,51.3,25.7,30.12,WSW,239,0.0,0.0,37,0.00,,,0.00,WUHU216WMR968SP,2013-06-13 08:50:00,
2013-06-13 01:55:00,51.1,26.2,30.12,WSW,239,0.0,0.0,38,0.00,,,0.00,WUHU216WMR968SP,2013-06-13 08:55:00,
2013-06-13 02:00:00,50.9,26.0,30.12,WSW,239,0.0,0.0,38,0.00,,,0.00,WUHU216WMR968SP,2013-06-13 09:00:00,
2013-06-13 02:05:00,50.9,26.0,30.12,WSW,239,0.0,0.0,38,0.00,,,0.00,WUHU216WMR968SP,2013-06-13 09:05:00,
2013-06-13 02:10:00,50.9,26.0,30.12,WSW,239,0.0,0.0,38,0.00,,,0.00,WUHU216WMR968SP,2013-06-13 09:10:00,
2013-06-13 02:15:00,51.1,26.2,30.12,WSW,239,0.0,0.0,38,0.00,,,0.00,WUHU216WMR968SP,2013-06-13 09:15:00,
2013-06-13 02:20:00,51.1,26.2,30.12,WSW,239,0.0,0.0,38,0.00,,,0.00,WUHU216WMR968SP,2013-06-13 09:20:00,
2013-06-13 02:25:00,51.1,26.2,30.12,WSW,239,0.0,0.0,38,0.00,,,0.00,WUHU216WMR968SP,2013-06-13 09:25:00,
2013-06-13 02:30:00,51.1,25.5,30.12,WSW,239,0.0,0.0,37,0.00,,,0.00,WUHU216WMR968SP,2013-06-13 09:30:00,
2013-06-13 02:35:00,51.1,25.5,30.12,WSW,239,0.0,0.0,37,0.00,,,0.00,WUHU216WMR968SP,2013-06-13 09:35:00,
2013-06-13 02:40:00,51.1,25.5,30.12,WSW,239,0.0,0.0,37,0.00,,,0.00,WUHU216WMR968SP,2013-06-13 09:40:00,
2013-06-13 02:45:00,51.1,25.5,30.12,WSW,239,0.0,0.0,37,0.00,,,0.00,WUHU216WMR968SP,2013-06-13 09:45:00,
2013-06-13 02:50:00,51.1,25.5,30.12,WSW,239,0.0,0.0,37,0.00,,,0.00,WUHU216WMR968SP,2013-06-13 09:50:00,
2013-06-13 03:36:00,51.3,25.7,30.12,WSW,239,0.0,0.0,37,0.00,,,0.00,WUHU216WMR968SP,2013-06-13 10:36:00,
2013-06-13 03:41:00,51.3,26.3,30.12,WSW,239,0.0,0.0,38,0.00,,,0.00,WUHU216WMR968SP,2013-06-13 10:41:00,
2013-06-13 03:46:00,51.1,26.2,30.12,WSW,239,0.0,0.0,38,0.00,,,0.00,WUHU216WMR968SP,2013-06-13 10:46:00,
2013-06-13 03:51:00,51.1,26.2,30.12,WSW,239,0.0,0.0,38,0.00,,,0.00,WUHU216WMR968SP,2013-06-13 10:51:00,
2013-06-13 03:56:00,51.1,26.2,30.12,WSW,239,0.0,0.0,38,0.00,,,0.00,WUHU216WMR968SP,2013-06-13 10:56:00,
2013-06-13 04:01:00,51.1,25.5,30.12,WSW,239,0.0,0.0,37,0.00,,,0.00,WUHU216WMR968SP,2013-06-13 11:01:00,
2013-06-13 04:06:00,51.3,25.7,30.12,WSW,239,0.0,0.0,37,0.00,,,0.00,WUHU216WMR968SP,2013-06-13 11:06:00,
2013-06-13 04:11:00,51.3,25.7,30.12,WSW,239,0.0,0.0,37,0.00,,,0.00,WUHU216WMR968SP,2013-06-13 11:11:00,
2013-06-13 04:16:00,51.3,25.7,30.12,WSW,239,0.0,0.0,37,0.00,,,0.00,WUHU216WMR968SP,2013-06-13 11:16:00,
2013-06-13 04:21:00,51.3,26.3,30.15,WSW,239,0.0,0.0,38,0.00,,,0.00,WUHU216WMR968SP,2013-06-13 11:21:00,
2013-06-13 04:26:00,51.1,26.2,30.15,WSW,244,0.0,0.0,38,0.00,,,0.00,WUHU216WMR968SP,2013-06-13 11:26:00,
2013-06-13 04:31:00,51.3,25.7,30.15,WSW,244,0.0,0.0,37,0.00,,,0.00,WUHU216WMR968SP,2013-06-13 11:31:00,
2013-06-13 04:36:00,51.3,25.7,30.12,WSW,244,0.0,0.0,37,0.00,,,0.00,WUHU216WMR968SP,2013-06-13 11:36:00,
2013-06-13 04:41:00,51.3,25.7,30.12,WSW,244,0.0,0.0,37,0.00,,,0.00,WUHU216WMR968SP,2013-06-13 11:41:00,
2013-06-13 04:46:00,51.1,26.2,30.12,WSW,244,0.0,0.0,38,0.00,,,0.00,WUHU216WMR968SP,2013-06-13 11:46:00,
2013-06-13 04:51:00,51.1,26.2,30.12,WSW,244,0.0,0.0,38,0.00,,,0.00,WUHU216WMR968SP,2013-06-13 11:51:00,
2013-06-13 04:56:00,51.1,26.2,30.12,WSW,244,0.0,0.0,38,0.00,,,0.00,WUHU216WMR968SP,2013-06-13 11:56:00,
2013-06-13 05:01:00,51.1,26.2,30.12,WSW,244,0.0,0.0,38,0.00,,,0.00,WUHU216WMR968SP,2013-06-13 12:01:00,
2013-06-13 05:06:00,50.9,26.0,30.12,WSW,244,0.0,0.0,38,0.00,,,0.00,WUHU216WMR968SP,2013-06-13 12:06:00,
2013-06-13 05:11:00,50.9,26.6,30.12,WSW,244,0.0,0.0,39,0.00,,,0.00,WUHU216WMR968SP,2013-06-13 12:11:00,
2013-06-13 05:16:00,50.9,27.2,30.12,WSW,244,0.0,0.0,40,0.00,,,0.00,WUHU216WMR968SP,2013-06-13 12:16:00,
2013-06-13 05:21:00,50.9,27.2,30.12,WSW,239,0.0,0.0,40,0.00,,,0.00,WUHU216WMR968SP,2013-06-13 12:21:00,
2013-06-13 05:26:00,51.1,26.8,30.12,SW,230,0.0,0.0,39,0.00,,,0.00,WUHU216WMR968SP,2013-06-13 12:26:00,
2013-06-13 05:31:00,51.1,26.8,30.12,SW,229,0.0,0.0,39,0.00,,,0.00,WUHU216WMR968SP,2013-06-13 12:31:00,
2013-06-13 05:36:00,51.1,26.8,30.12,South,174,0.0,0.0,39,0.00,,,0.00,WUHU216WMR968SP,2013-06-13 12:36:00,
2013-06-13 05:41:00,50.9,26.6,30.12,South,174,0.0,0.0,39,0.00,,,0.00,WUHU216WMR968SP,2013-06-13 12:41:00,
2013-06-13 05:46:00,50.9,26.6,30.12,South,174,0.0,0.0,39,0.00,,,0.00,WUHU216WMR968SP,2013-06-13 12:46:00,
2013-06-13 05:51:00,50.9,26.6,30.12,South,173,0.0,0.0,39,0.00,,,0.00,WUHU216WMR968SP,2013-06-13 12:51:00,
2013-06-13 05:56:00,50.9,26.6,30.12,South,173,0.0,0.0,39,0.00,,,0.00,WUHU216WMR968SP,2013-06-13 12:56:00,
2013-06-13 06:01:00,50.9,27.2,30.12,South,172,0.0,0.0,40,0.00,,,0.00,WUHU216WMR968SP,2013-06-13 13:01:00,
2013-06-13 06:06:00,50.9,27.2,30.15,South,173,0.0,0.0,40,0.00,,,0.00,WUHU216WMR968SP,2013-06-13 13:06:00,
2013-06-13 06:11:00,50.7,27.1,30.15,South,174,0.0,0.0,40,0.00,,,0.00,WUHU216WMR968SP,2013-06-13 13:11:00,
2013-06-13 06:16:00,50.7,26.4,30.15,South,174,0.0,0.0,39,0.00,,,0.00,WUHU216WMR968SP,2013-06-13 13:16:00,
2013-06-13 06:21:00,50.7,27.1,30.15,South,175,0.0,0.0,40,0.00,,,0.00,WUHU216WMR968SP,2013-06-13 13:21:00,
2013-06-13 06:26:00,50.5,26.9,30.15,South,182,0.0,0.0,40,0.00,,,0.00,WUHU216WMR968SP,2013-06-13 13:26:00,
2013-06-13 06:31:00,50.4,27.4,30.15,South,181,0.0,0.0,41,0.00,,,0.00,WUHU216WMR968SP,2013-06-13 13:31:00,
2013-06-13 06:36:00,50.4,27.4,30.15,South,182,0.0,0.0,41,0.00,,,0.00,WUHU216WMR968SP,2013-06-13 13:36:00,
2013-06-13 06:41:00,50.4,27.4,30.15,South,181,0.0,0.0,41,0.00,,,0.00,WUHU216WMR968SP,2013-06-13 13:41:00,
2013-06-13 06:46:00,50.4,27.4,30.15,SSE,165,0.0,2.7,41,0.00,,,0.00,WUHU216WMR968SP,2013-06-13 13:46:00,
2013-06-13 06:51:00,50.4,27.4,30.15,SSE,156,0.0,2.7,41,0.00,,,0.00,WUHU216WMR968SP,2013-06-13 13:51:00,
2013-06-13 06:56:00,50.5,27.5,30.15,SSE,151,0.0,3.1,41,0.00,,,0.00,WUHU216WMR968SP,2013-06-13 13:56:00,
2013-06-13 07:01:00,50.5,27.5,30.15,SE,130,0.0,3.1,41,0.00,,,0.00,WUHU216WMR968SP,2013-06-13 14:01:00,
2013-06-13 07:06:00,50.5,27.5,30.15,SE,131,0.0,3.1,41,0.00,,,0.00,WUHU216WMR968SP,2013-06-13 14:06:00,
2013-06-13 07:11:00,50.5,27.5,30.15,SE,131,0.0,2.7,41,0.00,,,0.00,WUHU216WMR968SP,2013-06-13 14:11:00,
2013-06-13 07:16:00,50.5,27.5,30.15,SE,132,0.0,0.0,41,0.00,,,0.00,WUHU216WMR968SP,2013-06-13 14:16:00,
2013-06-13 07:21:00,50.5,27.5,30.15,SE,130,0.0,0.0,41,0.00,,,0.00,WUHU216WMR968SP,2013-06-13 14:21:00,
2013-06-13 07:26:00,50.5,27.5,30.15,SE,132,0.0,0.0,41,0.00,,,0.00,WUHU216WMR968SP,2013-06-13 14:26:00,
2013-06-13 07:31:00,50.5,27.5,30.15,SE,133,0.0,0.0,41,0.00,,,0.00,WUHU216WMR968SP,2013-06-13 14:31:00,
2013-06-13 07:36:00,50.4,27.4,30.15,SSW,195,2.2,5.4,41,0.00,,,0.00,WUHU216WMR968SP,2013-06-13 14:36:00,
2013-06-13 07:41:00,50.4,27.4,30.15,SSW,196,0.0,5.4,41,0.00,,,0.00,WUHU216WMR968SP,2013-06-13 14:41:00,
2013-06-13 07:46:00,50.4,28.0,30.15,SSW,196,0.0,2.2,42,0.00,,,0.00,WUHU216WMR968SP,2013-06-13 14:46:00,
2013-06-13 07:51:00,50.4,28.0,30.15,SSW,196,0.0,0.0,42,0.00,,,0.00,WUHU216WMR968SP,2013-06-13 14:51:00,
2013-06-13 07:56:00,50.2,27.8,30.15,SSW,195,0.0,0.0,42,0.00,,,0.00,WUHU216WMR968SP,2013-06-13 14:56:00,
2013-06-13 08:01:00,50.2,28.4,30.15,SSW,196,0.0,0.0,43,0.00,,,0.00,WUHU216WMR968SP,2013-06-13 15:01:00,
2013-06-13 08:06:00,50.2,28.4,30.15,South,179,0.0,0.0,43,0.00,,,0.00,WUHU216WMR968SP,2013-06-13 15:06:00,
2013-06-13 08:11:00,50.4,28.6,30.15,South,171,0.0,0.0,43,0.00,,,0.00,WUHU216WMR968SP,2013-06-13 15:11:00,
2013-06-13 08:16:00,50.4,28.6,30.15,South,170,0.0,0.0,43,0.00,,,0.00,WUHU216WMR968SP,2013-06-13 15:16:00,
2013-06-13 08:21:00,50.4,28.6,30.15,South,171,0.0,0.0,43,0.00,,,0.00,WUHU216WMR968SP,2013-06-13 15:21:00,
2013-06-13 08:26:00,50.4,28.6,30.15,South,171,0.0,0.0,43,0.00,,,0.00,WUHU216WMR968SP,2013-06-13 15:26:00,
2013-06-13 08:31:00,50.4,28.6,30.15,NNE,21,0.0,3.6,43,0.00,,,0.00,WUHU216WMR968SP,2013-06-13 15:31:00,
2013-06-13 08:36:00,50.5,29.8,30.15,SW,228,0.0,3.6,45,0.00,,,0.00,WUHU216WMR968SP,2013-06-13 15:36:00,
2013-06-13 08:41:00,50.5,29.8,30.15,SW,229,0.0,2.7,45,0.00,,,0.00,WUHU216WMR968SP,2013-06-13 15:41:00,
2013-06-13 08:46:00,50.5,30.4,30.15,SW,229,0.0,2.7,46,0.00,,,0.00,WUHU216WMR968SP,2013-06-13 15:46:00,
2013-06-13 08:51:00,50.7,30.6,30.15,SW,225,0.0,0.0,46,0.00,,,0.00,WUHU216WMR968SP,2013-06-13 15:51:00,
2013-06-13 08:56:00,51.1,32.0,30.15,SW,225,0.0,0.0,46,0.00,,,0.00,WUHU216WMR968SP,2013-06-13 15:56:00,
2013-06-13 09:01:00,51.1,32.0,30.15,WSW,241,0.0,2.2,45,0.00,,,0.00,WUHU216WMR968SP,2013-06-13 16:01:00,
2013-06-13 09:06:00,51.4,32.0,30.15,WSW,249,0.0,2.2,45,0.00,,,0.00,WUHU216WMR968SP,2013-06-13 16:06:00,
2013-06-13 09:11:00,51.6,30.3,30.15,WSW,252,0.0,0.0,44,0.00,,,0.00,WUHU216WMR968SP,2013-06-13 16:11:00,
2013-06-13 09:16:00,51.6,29.7,30.15,WSW,252,0.0,0.0,43,0.00,,,0.00,WUHU216WMR968SP,2013-06-13 16:16:00,
2013-06-13 09:21:00,51.6,29.1,30.15,NE,55,0.0,3.1,42,0.00,,,0.00,WUHU216WMR968SP,2013-06-13 16:21:00,
2013-06-13 09:26:00,51.8,28.7,30.15,SSE,168,0.0,4.0,41,0.00,,,0.00,WUHU216WMR968SP,2013-06-13 16:26:00,
2013-06-13 09:31:00,52.0,28.9,30.15,SSE,167,0.0,4.0,41,0.00,,,0.00,WUHU216WMR968SP,2013-06-13 16:31:00,
2013-06-13 09:36:00,52.0,28.9,30.15,SSE,168,0.0,0.0,41,0.00,,,0.00,WUHU216WMR968SP,2013-06-13 16:36:00,
2013-06-13 09:41:00,51.8,28.1,30.15,SSE,167,0.0,0.0,40,0.00,,,0.00,WUHU216WMR968SP,2013-06-13 16:41:00,
2013-06-13 09:46:00,52.0,28.9,30.15,SSE,158,0.0,0.0,41,0.00,,,0.00,WUHU216WMR968SP,2013-06-13 16:46:00,
2013-06-13 09:51:00,52.0,28.2,30.18,SSE,154,0.0,3.1,40,0.00,,,0.00,WUHU216WMR968SP,2013-06-13 16:51:00,
2013-06-13 09:56:00,52.0,27.6,30.18,SSW,212,2.2,4.0,39,0.00,,,0.00,WUHU216WMR968SP,2013-06-13 16:56:00,
2013-06-13 10:01:00,52.2,27.1,30.18,SSW,207,2.2,4.0,38,0.00,,,0.00,WUHU216WMR968SP,2013-06-13 17:01:00,
2013-06-13 10:06:00,52.5,28.1,30.15,South,184,0.0,4.0,39,0.00,,,0.00,WUHU216WMR968SP,2013-06-13 17:06:00,
2013-06-13 10:11:00,52.5,26.8,30.15,SSW,202,3.6,5.8,37,0.00,,,0.00,WUHU216WMR968SP,2013-06-13 17:11:00,
2013-06-13 10:16:00,52.9,27.8,30.15,SSW,204,0.0,6.3,38,0.00,,,0.00,WUHU216WMR968SP,2013-06-13 17:16:00,
2013-06-13 10:21:00,52.9,27.8,30.18,South,169,0.0,6.3,38,0.00,,,0.00,WUHU216WMR968SP,2013-06-13 17:21:00,
2013-06-13 10:26:00,52.9,27.1,30.18,SSE,160,4.5,8.1,37,0.00,,,0.00,WUHU216WMR968SP,2013-06-13 17:26:00,
2013-06-13 10:31:00,52.7,26.9,30.18,South,191,2.7,8.1,37,0.00,,,0.00,WUHU216WMR968SP,2013-06-13 17:31:00,
2013-06-13 10:36:00,52.7,27.6,30.18,South,190,0.0,5.4,38,0.00,,,0.00,WUHU216WMR968SP,2013-06-13 17:36:00,
2013-06-13 10:41:00,52.7,27.6,30.18,South,178,0.0,3.6,38,0.00,,,0.00,WUHU216WMR968SP,2013-06-13 17:41:00,
2013-06-13 10:46:00,52.9,27.8,30.18,SSW,210,0.0,3.6,38,0.00,,,0.00,WUHU216WMR968SP,2013-06-13 17:46:00,
2013-06-13 10:51:00,53.2,28.7,30.18,SSW,210,0.0,2.7,39,0.00,,,0.00,WUHU216WMR968SP,2013-06-13 17:51:00,
2013-06-13 10:56:00,53.1,26.6,30.18,SSE,164,3.1,4.9,36,0.00,,,0.00,WUHU216WMR968SP,2013-06-13 17:56:00,
2013-06-13 11:01:00,53.1,27.3,30.18,SSE,165,2.2,5.8,37,0.00,,,0.00,WUHU216WMR968SP,2013-06-13 18:01:00,
2013-06-13 11:06:00,53.1,27.3,30.18,South,188,2.2,5.8,37,0.00,,,0.00,WUHU216WMR968SP,2013-06-13 18:06:00,
2013-06-13 11:11:00,53.1,27.3,30.18,South,173,2.2,4.0,37,0.00,,,0.00,WUHU216WMR968SP,2013-06-13 18:11:00,
2013-06-13 11:16:00,53.1,27.9,30.18,SW,228,2.2,4.0,38,0.00,,,0.00,WUHU216WMR968SP,2013-06-13 18:16:00,
2013-06-13 11:21:00,52.9,28.4,30.18,SSE,152,0.0,4.0,39,0.00,,,0.00,WUHU216WMR968SP,2013-06-13 18:21:00,
2013-06-13 11:26:00,52.7,28.9,30.18,SSW,204,0.0,3.6,40,0.00,,,0.00,WUHU216WMR968SP,2013-06-13 18:26:00,
2013-06-13 11:31:00,52.7,29.5,30.18,SSW,203,0.0,0.0,41,0.00,,,0.00,WUHU216WMR968SP,2013-06-13 18:31:00,
2013-06-13 11:36:00,52.9,29.7,30.18,South,187,0.0,0.0,41,0.00,,,0.00,WUHU216WMR968SP,2013-06-13 18:36:00,
2013-06-13 11:41:00,52.9,29.7,30.18,South,189,0.0,0.0,41,0.00,,,0.00,WUHU216WMR968SP,2013-06-13 18:41:00,
2013-06-13 11:46:00,53.1,29.8,30.18,South,189,0.0,3.1,41,0.00,,,0.00,WUHU216WMR968SP,2013-06-13 18:46:00,
2013-06-13 11:51:00,53.1,29.8,30.18,SE,128,3.1,4.5,41,0.00,,,0.00,WUHU216WMR968SP,2013-06-13 18:51:00,
2013-06-13 11:56:00,53.1,29.2,30.18,SSE,166,2.2,4.5,40,0.00,,,0.00,WUHU216WMR968SP,2013-06-13 18:56:00,
2013-06-13 12:01:00,53.2,29.9,30.18,SSE,167,0.0,3.6,41,0.00,,,0.00,WUHU216WMR968SP,2013-06-13 19:01:00,
2013-06-13 12:06:00,53.2,29.9,30.18,WSW,247,0.0,2.7,41,0.00,,,0.00,WUHU216WMR968SP,2013-06-13 19:06:00,
2013-06-13 12:11:00,53.6,29.7,30.18,SW,222,0.0,2.7,40,0.00,,,0.00,WUHU216WMR968SP,2013-06-13 19:11:00,
2013-06-13 12:16:00,53.8,29.2,30.18,SSE,160,0.0,3.6,39,0.00,,,0.00,WUHU216WMR968SP,2013-06-13 19:16:00,
2013-06-13 12:21:00,53.6,28.4,30.18,SE,145,4.0,5.4,38,0.00,,,0.00,WUHU216WMR968SP,2013-06-13 19:21:00,
2013-06-13 12:26:00,53.4,29.5,30.18,SSE,148,0.0,5.4,40,0.00,,,0.00,WUHU216WMR968SP,2013-06-13 19:26:00,
2013-06-13 12:31:00,54.0,30.7,30.18,SE,146,0.0,5.4,41,0.00,,,0.00,WUHU216WMR968SP,2013-06-13 19:31:00,
2013-06-13 12:36:00,54.3,30.9,30.18,SSE,165,0.0,2.7,41,0.00,,,0.00,WUHU216WMR968SP,2013-06-13 19:36:00,
2013-06-13 12:41:00,54.5,32.0,30.18,SW,222,0.0,0.0,40,0.00,,,0.00,WUHU216WMR968SP,2013-06-13 19:41:00,
2013-06-13 12:46:00,54.9,29.6,30.18,SSE,160,2.2,4.9,38,0.00,,,0.00,WUHU216WMR968SP,2013-06-13 19:46:00,
2013-06-13 12:51:00,55.2,29.8,30.18,ESE,123,0.0,4.9,38,0.00,,,0.00,WUHU216WMR968SP,2013-06-13 19:51:00,
2013-06-13 12:56:00,55.2,29.2,30.18,SW,221,0.0,5.4,37,0.00,,,0.00,WUHU216WMR968SP,2013-06-13 19:56:00,
2013-06-13 13:01:00,55.2,29.2,30.18,SW,221,2.7,5.4,37,0.00,,,0.00,WUHU216WMR968SP,2013-06-13 20:01:00,
2013-06-13 13:06:00,55.2,29.2,30.18,SE,139,3.1,3.6,37,0.00,,,0.00,WUHU216WMR968SP,2013-06-13 20:06:00,
2013-06-13 13:11:00,55.2,28.5,30.18,SE,140,0.0,3.6,36,0.00,,,0.00,WUHU216WMR968SP,2013-06-13 20:11:00,
2013-06-13 13:16:00,55.2,28.5,30.18,SE,139,3.1,4.5,36,0.00,,,0.00,WUHU216WMR968SP,2013-06-13 20:16:00,
2013-06-13 13:21:00,55.4,28.7,30.18,South,185,2.7,4.5,36,0.00,,,0.00,WUHU216WMR968SP,2013-06-13 20:21:00,
2013-06-13 13:26:00,55.9,29.8,30.18,SE,139,0.0,4.9,37,0.00,,,0.00,WUHU216WMR968SP,2013-06-13 20:26:00,
2013-06-13 13:31:00,57.0,32.0,30.18,SSE,164,2.2,4.9,38,0.00,,,0.00,WUHU216WMR968SP,2013-06-13 20:31:00,
2013-06-13 13:36:00,57.7,30.7,30.18,ESE,119,3.1,4.0,36,0.00,,,0.00,WUHU216WMR968SP,2013-06-13 20:36:00,
2013-06-13 13:41:00,58.3,32.0,30.18,East,96,3.6,5.4,35,0.00,,,0.00,WUHU216WMR968SP,2013-06-13 20:41:00,
2013-06-13 13:46:00,57.9,28.7,30.18,ENE,66,0.0,5.4,33,0.00,,,0.00,WUHU216WMR968SP,2013-06-13 20:46:00,
2013-06-13 13:51:00,57.6,29.2,30.18,NNE,32,3.1,6.3,34,0.00,,,0.00,WUHU216WMR968SP,2013-06-13 20:51:00,
2013-06-13 13:56:00,57.4,29.7,30.18,NNE,30,0.0,6.3,35,0.00,,,0.00,WUHU216WMR968SP,2013-06-13 20:56:00,
2013-06-13 14:01:00,57.4,29.0,30.18,NE,46,0.0,3.1,34,0.00,,,0.00,WUHU216WMR968SP,2013-06-13 21:01:00,
2013-06-13 14:06:00,57.7,28.6,30.18,NW,320,2.7,3.1,33,0.00,,,0.00,WUHU216WMR968SP,2013-06-13 21:06:00,
2013-06-13 14:11:00,57.9,28.7,30.18,NNW,332,0.0,3.1,33,0.00,,,0.00,WUHU216WMR968SP,2013-06-13 21:11:00,
2013-06-13 14:16:00,57.9,27.2,30.18,NNW,332,0.0,2.7,31,0.00,,,0.00,WUHU216WMR968SP,2013-06-13 21:16:00,
2013-06-13 14:21:00,58.1,28.2,30.18,NW,322,2.2,4.0,32,0.00,,,0.00,WUHU216WMR968SP,2013-06-13 21:21:00,
2013-06-13 14:26:00,58.3,29.1,30.18,NW,320,0.0,4.0,33,0.00,,,0.00,WUHU216WMR968SP,2013-06-13 21:26:00,
2013-06-13 14:31:00,58.1,27.4,30.18,West,265,0.0,3.1,31,0.00,,,0.00,WUHU216WMR968SP,2013-06-13 21:31:00,
2013-06-13 14:36:00,57.7,27.8,30.18,SW,232,2.7,3.6,32,0.00,,,0.00,WUHU216WMR968SP,2013-06-13 21:36:00,
2013-06-13 14:41:00,57.2,27.4,30.18,SSW,211,3.6,5.4,32,0.00,,,0.00,WUHU216WMR968SP,2013-06-13 21:41:00,
2013-06-13 14:46:00,56.7,29.1,30.18,SSW,212,0.0,5.4,35,0.04,,,0.04,WUHU216WMR968SP,2013-06-13 21:46:00,
2013-06-13 14:51:00,56.8,29.9,30.18,SSW,211,0.0,3.6,36,0.04,,,0.04,WUHU216WMR968SP,2013-06-13 21:51:00,
2013-06-13 14:56:00,57.4,29.7,30.18,SSW,213,3.1,4.0,35,0.04,,,0.04,WUHU216WMR968SP,2013-06-13 21:56:00,
2013-06-13 15:01:00,57.7,30.7,30.18,South,183,2.2,4.0,36,0.04,,,0.04,WUHU216WMR968SP,2013-06-13 22:01:00,
2013-06-13 15:06:00,57.9,28.0,30.18,SW,225,3.6,4.9,32,0.04,,,0.04,WUHU216WMR968SP,2013-06-13 22:06:00,
2013-06-13 15:11:00,57.7,29.3,30.18,SSE,167,0.0,4.9,34,0.04,,,0.04,WUHU216WMR968SP,2013-06-13 22:11:00,
2013-06-13 15:16:00,57.7,29.3,30.18,SSW,211,2.2,5.4,34,0.04,,,0.04,WUHU216WMR968SP,2013-06-13 22:16:00,
2013-06-13 15:21:00,57.7,29.3,30.18,SSW,195,2.7,5.4,34,0.04,,,0.04,WUHU216WMR968SP,2013-06-13 22:21:00,
2013-06-13 15:26:00,57.7,29.3,30.18,SSW,195,0.0,4.0,34,0.04,,,0.04,WUHU216WMR968SP,2013-06-13 22:26:00,
2013-06-13 15:31:00,57.7,29.3,30.18,SE,140,2.7,4.0,34,0.04,,,0.04,WUHU216WMR968SP,2013-06-13 22:31:00,
2013-06-13 15:36:00,57.9,28.0,30.18,SE,145,4.0,5.4,32,0.04,,,0.04,WUHU216WMR968SP,2013-06-13 22:36:00,
2013-06-13 15:41:00,58.1,32.0,30.18,SSE,149,0.0,5.4,35,0.04,,,0.04,WUHU216WMR968SP,2013-06-13 22:41:00,
2013-06-13 15:46:00,58.3,28.3,30.18,SSW,196,0.0,4.0,32,0.00,,,0.04,WUHU216WMR968SP,2013-06-13 22:46:00,
2013-06-13 15:51:00,58.5,28.5,30.18,SSW,196,0.0,2.7,32,0.00,,,0.04,WUHU216WMR968SP,2013-06-13 22:51:00,
2013-06-13 15:56:00,58.8,30.3,30.18,ENE,74,0.0,2.2,34,0.00,,,0.04,WUHU216WMR968SP,2013-06-13 22:56:00,
2013-06-13 16:01:00,58.8,29.5,30.18,ENE,76,0.0,2.2,33,0.00,,,0.04,WUHU216WMR968SP,2013-06-13 23:01:00,
2013-06-13 16:06:00,59.0,27.4,30.18,ESE,111,0.0,4.0,30,0.00,,,0.04,WUHU216WMR968SP,2013-06-13 23:06:00,
2013-06-13 16:11:00,59.4,28.5,30.18,West,269,2.7,4.0,31,0.00,,,0.04,WUHU216WMR968SP,2013-06-13 23:11:00,
2013-06-13 16:16:00,59.7,26.3,30.18,SE,146,3.1,4.0,28,0.00,,,0.04,WUHU216WMR968SP,2013-06-13 23:16:00,
2013-06-13 16:21:00,60.6,27.1,30.18,SE,136,0.0,3.6,28,0.00,,,0.04,WUHU216WMR968SP,2013-06-13 23:21:00,
2013-06-13 16:26:00,61.2,27.6,30.18,SSE,150,0.0,3.1,28,0.00,,,0.04,WUHU216WMR968SP,2013-06-13 23:26:00,
2013-06-13 16:31:00,60.3,26.0,30.18,SE,139,3.1,4.9,27,0.00,,,0.04,WUHU216WMR968SP,2013-06-13 23:31:00,
2013-06-13 16:36:00,59.7,26.3,30.18,SW,234,0.0,4.9,28,0.00,,,0.04,WUHU216WMR968SP,2013-06-13 23:36:00,
2013-06-13 16:41:00,59.9,26.5,30.18,SW,234,0.0,3.1,28,0.00,,,0.04,WUHU216WMR968SP,2013-06-13 23:41:00,
2013-06-13 16:46:00,60.1,25.8,30.18,NW,315,0.0,0.0,27,0.00,,,0.04,WUHU216WMR968SP,2013-06-13 23:46:00,
2013-06-13 16:51:00,60.1,25.8,30.18,NW,313,2.2,3.6,27,0.00,,,0.04,WUHU216WMR968SP,2013-06-13 23:51:00,
2013-06-13 16:56:00,59.7,25.5,30.18,SW,217,2.7,4.9,27,0.00,,,0.04,WUHU216WMR968SP,2013-06-13 23:56:00,
2013-06-13 17:01:00,59.2,26.7,30.18,SW,215,0.0,4.9,29,0.00,,,0.04,WUHU216WMR968SP,2013-06-14 00:01:00,
2013-06-13 17:06:00,58.8,28.0,30.18,SW,214,0.0,4.0,31,0.00,,,0.04,WUHU216WMR968SP,2013-06-14 00:06:00,
2013-06-13 17:11:00,58.8,32.0,30.18,SSW,208,0.0,0.0,35,0.00,,,0.04,WUHU216WMR968SP,2013-06-14 00:11:00,
2013-06-13 17:16:00,58.8,30.3,30.18,West,260,0.0,3.1,34,0.00,,,0.04,WUHU216WMR968SP,2013-06-14 00:16:00,
2013-06-13 17:21:00,59.0,29.7,30.18,WSW,256,0.0,3.1,33,0.00,,,0.04,WUHU216WMR968SP,2013-06-14 00:21:00,
2013-06-13 17:26:00,59.4,30.8,30.18,SW,236,0.0,0.0,34,0.00,,,0.04,WUHU216WMR968SP,2013-06-14 00:26:00,
2013-06-13 17:31:00,59.5,29.4,30.18,WSW,237,0.0,0.0,32,0.00,,,0.04,WUHU216WMR968SP,2013-06-14 00:31:00,
2013-06-13 17:36:00,59.5,27.8,30.18,WSW,237,0.0,0.0,30,0.00,,,0.04,WUHU216WMR968SP,2013-06-14 00:36:00,
2013-06-13 17:41:00,59.4,26.9,30.18,SW,236,0.0,0.0,29,0.00,,,0.04,WUHU216WMR968SP,2013-06-14 00:41:00,
2013-06-13 17:46:00,59.2,25.0,30.18,SW,216,2.2,3.1,27,0.00,,,0.04,WUHU216WMR968SP,2013-06-14 00:46:00,
2013-06-13 17:51:00,59.2,25.9,30.18,SW,214,2.2,3.1,28,0.00,,,0.04,WUHU216WMR968SP,2013-06-14 00:51:00,
2013-06-13 17:56:00,59.0,26.6,30.18,SSW,204,2.7,3.1,29,0.00,,,0.04,WUHU216WMR968SP,2013-06-14 00:56:00,
2013-06-13 18:01:00,58.6,26.2,30.18,SSW,206,0.0,3.1,29,0.00,,,0.04,WUHU216WMR968SP,2013-06-14 01:01:00,
2013-06-13 18:06:00,58.5,26.1,30.21,SSW,207,0.0,3.1,29,0.00,,,0.04,WUHU216WMR968SP,2013-06-14 01:06:00,
2013-06-13 18:11:00,58.3,26.8,30.21,SSW,206,0.0,3.1,30,0.00,,,0.04,WUHU216WMR968SP,2013-06-14 01:11:00,
2013-06-13 18:16:00,57.9,28.7,30.21,SSW,207,0.0,0.0,33,0.00,,,0.04,WUHU216WMR968SP,2013-06-14 01:16:00,
2013-06-13 18:21:00,57.4,29.7,30.21,SSW,207,0.0,0.0,35,0.00,,,0.04,WUHU216WMR968SP,2013-06-14 01:21:00,
2013-06-13 18:26:00,56.8,29.9,30.21,SW,232,0.0,3.6,36,0.00,,,0.04,WUHU216WMR968SP,2013-06-14 01:26:00,
2013-06-13 18:31:00,56.1,30.0,30.21,SW,233,0.0,3.6,37,0.00,,,0.04,WUHU216WMR968SP,2013-06-14 01:31:00,
2013-06-13 18:36:00,55.8,29.7,30.21,SW,234,0.0,0.0,37,0.04,,,0.08,WUHU216WMR968SP,2013-06-14 01:36:00,
2013-06-13 18:41:00,55.6,30.8,30.21,SW,233,0.0,0.0,39,0.04,,,0.08,WUHU216WMR968SP,2013-06-14 01:41:00,
2013-06-13 18:46:00,55.4,32.0,30.21,SW,234,0.0,0.0,40,0.04,,,0.08,WUHU216WMR968SP,2013-06-14 01:46:00,
2013-06-13 18:51:00,55.2,32.0,30.21,SW,234,0.0,0.0,41,0.08,,,0.12,WUHU216WMR968SP,2013-06-14 01:51:00,
2013-06-13 18:56:00,55.2,32.0,30.21,SW,234,0.0,0.0,42,0.08,,,0.12,WUHU216WMR968SP,2013-06-14 01:56:00,
2013-06-13 19:01:00,55.2,33.8,30.21,SW,234,0.0,0.0,43,0.08,,,0.12,WUHU216WMR968SP,2013-06-14 02:01:00,
2013-06-13 19:06:00,55.2,33.8,30.21,SW,234,0.0,0.0,45,0.08,,,0.12,WUHU216WMR968SP,2013-06-14 02:06:00,
2013-06-13 19:11:00,55.2,35.6,30.21,SW,234,0.0,0.0,46,0.08,,,0.12,WUHU216WMR968SP,2013-06-14 02:11:00,
2013-06-13 19:16:00,55.9,35.6,30.21,SW,233,0.0,0.0,47,0.08,,,0.12,WUHU216WMR968SP,2013-06-14 02:16:00,
2013-06-13 19:21:00,56.7,37.4,30.21,SW,233,0.0,0.0,47,0.08,,,0.12,WUHU216WMR968SP,2013-06-14 02:21:00,
2013-06-13 19:26:00,56.7,37.4,30.21,SW,233,0.0,0.0,46,0.08,,,0.12,WUHU216WMR968SP,2013-06-14 02:26:00,
2013-06-13 19:31:00,56.5,35.6,30.21,SW,234,0.0,0.0,45,0.08,,,0.12,WUHU216WMR968SP,2013-06-14 02:31:00,
2013-06-13 19:36:00,56.3,35.6,30.21,SW,234,0.0,0.0,44,0.04,,,0.12,WUHU216WMR968SP,2013-06-14 02:36:00,
2013-06-13 19:41:00,56.1,33.8,30.21,WSW,250,0.0,0.0,44,0.04,,,0.12,WUHU216WMR968SP,2013-06-14 02:41:00,
2013-06-13 19:46:00,56.1,33.8,30.21,WSW,256,0.0,0.0,44,0.04,,,0.12,WUHU216WMR968SP,2013-06-14 02:46:00,
2013-06-13 19:51:00,56.1,33.8,30.21,WSW,255,0.0,0.0,44,0.00,,,0.12,WUHU216WMR968SP,2013-06-14 02:51:00,
2013-06-13 19:56:00,56.3,35.6,30.21,WSW,256,0.0,0.0,45,0.00,,,0.12,WUHU216WMR968SP,2013-06-14 02:56:00,
2013-06-13 20:01:00,56.3,35.6,30.21,WSW,256,0.0,0.0,45,0.00,,,0.12,WUHU216WMR968SP,2013-06-14 03:01:00,
2013-06-13 20:06:00,56.3,35.6,30.21,WSW,254,0.0,0.0,45,0.00,,,0.12,WUHU216WMR968SP,2013-06-14 03:06:00,
2013-06-13 20:11:00,56.5,37.4,30.21,WSW,254,0.0,0.0,46,0.00,,,0.12,WUHU216WMR968SP,2013-06-14 03:11:00,
2013-06-13 20:16:00,56.5,37.4,30.21,WSW,255,0.0,0.0,46,0.00,,,0.12,WUHU216WMR968SP,2013-06-14 03:16:00,
2013-06-13 20:21:00,56.3,37.4,30.21,WSW,254,0.0,0.0,46,0.00,,,0.12,WUHU216WMR968SP,2013-06-14 03:21:00,
2013-06-13 20:26:00,55.9,35.6,30.21,WSW,255,0.0,0.0,46,0.00,,,0.12,WUHU216WMR968SP,2013-06-14 03:26:00,
2013-06-13 20:31:00,55.6,35.6,30.21,WSW,254,0.0,0.0,46,0.00,,,0.12,WUHU216WMR968SP,2013-06-14 03:31:00,
2013-06-13 20:36:00,55.2,35.6,30.21,WSW,255,0.0,0.0,47,0.00,,,0.12,WUHU216WMR968SP,2013-06-14 03:36:00,
2013-06-13 20:41:00,54.9,35.6,30.21,WSW,254,0.0,0.0,48,0.00,,,0.12,WUHU216WMR968SP,2013-06-14 03:41:00,
2013-06-13 20:46:00,54.7,35.6,30.21,WSW,255,0.0,0.0,48,0.00,,,0.12,WUHU216WMR968SP,2013-06-14 03:46:00,
2013-06-13 20:51:00,54.5,37.4,30.21,WSW,255,0.0,0.0,49,0.00,,,0.12,WUHU216WMR968SP,2013-06-14 03:51:00,
2013-06-13 20:56:00,54.1,35.6,30.21,WSW,255,0.0,0.0,50,0.00,,,0.12,WUHU216WMR968SP,2013-06-14 03:56:00,
2013-06-13 21:01:00,54.0,35.6,30.21,WSW,255,0.0,0.0,50,0.00,,,0.12,WUHU216WMR968SP,2013-06-14 04:01:00,
2013-06-13 21:06:00,53.4,35.6,30.21,WSW,255,0.0,0.0,51,0.00,,,0.12,WUHU216WMR968SP,2013-06-14 04:06:00,
2013-06-13 21:11:00,53.2,37.4,30.21,WSW,255,0.0,0.0,52,0.00,,,0.12,WUHU216WMR968SP,2013-06-14 04:11:00,
2013-06-13 21:16:00,52.9,37.4,30.21,WSW,255,0.0,0.0,53,0.00,,,0.12,WUHU216WMR968SP,2013-06-14 04:16:00,
2013-06-13 21:21:00,52.7,37.4,30.21,WSW,255,0.0,0.0,54,0.00,,,0.12,WUHU216WMR968SP,2013-06-14 04:21:00,
2013-06-13 21:26:00,52.5,37.4,30.21,WSW,255,0.0,0.0,56,0.00,,,0.12,WUHU216WMR968SP,2013-06-14 04:26:00,
2013-06-13 21:31:00,52.3,37.4,30.21,WSW,255,0.0,0.0,57,0.00,,,0.12,WUHU216WMR968SP,2013-06-14 04:31:00,
2013-06-13 21:36:00,52.2,37.4,30.21,WSW,255,0.0,0.0,58,0.00,,,0.12,WUHU216WMR968SP,2013-06-14 04:36:00,
2013-06-13 21:41:00,52.0,37.4,30.21,WSW,255,0.0,0.0,59,0.00,,,0.12,WUHU216WMR968SP,2013-06-14 04:41:00,
2013-06-13 21:46:00,51.6,37.4,30.21,WSW,255,0.0,0.0,60,0.00,,,0.12,WUHU216WMR968SP,2013-06-14 04:46:00,
2013-06-13 21:51:00,51.4,37.4,30.24,WSW,255,0.0,0.0,60,0.00,,,0.12,WUHU216WMR968SP,2013-06-14 04:51:00,
2013-06-13 21:56:00,51.1,39.2,30.24,WSW,255,0.0,0.0,61,0.00,,,0.12,WUHU216WMR968SP,2013-06-14 04:56:00,
2013-06-13 22:01:00,50.9,39.2,30.24,WSW,255,0.0,0.0,62,0.00,,,0.12,WUHU216WMR968SP,2013-06-14 05:01:00,
2013-06-13 22:06:00,50.5,37.4,30.24,WSW,255,0.0,0.0,62,0.00,,,0.12,WUHU216WMR968SP,2013-06-14 05:06:00,
2013-06-13 22:11:00,50.4,39.2,30.24,WSW,255,0.0,0.0,64,0.00,,,0.12,WUHU216WMR968SP,2013-06-14 05:11:00,
2013-06-13 22:16:00,50.2,39.2,30.24,WSW,255,0.0,0.0,65,0.00,,,0.12,WUHU216WMR968SP,2013-06-14 05:16:00,
2013-06-13 22:21:00,50.0,39.2,30.21,WSW,255,0.0,0.0,65,0.00,,,0.12,WUHU216WMR968SP,2013-06-14 05:21:00,
2013-06-13 22:26:00,50.0,39.2,30.21,WSW,255,0.0,0.0,66,0.00,,,0.12,WUHU216WMR968SP,2013-06-14 05:26:00,
2013-06-13 22:31:00,49.8,39.2,30.21,WSW,255,0.0,0.0,66,0.00,,,0.12,WUHU216WMR968SP,2013-06-14 05:31:00,
2013-06-13 22:36:00,49.5,39.2,30.24,WSW,255,0.0,0.0,66,0.00,,,0.12,WUHU216WMR968SP,2013-06-14 05:36:00,
2013-06-13 22:41:00,49.5,39.2,30.24,WSW,255,0.0,0.0,67,0.00,,,0.12,WUHU216WMR968SP,2013-06-14 05:41:00,
2013-06-13 22:46:00,49.3,39.2,30.24,WSW,255,0.0,0.0,67,0.00,,,0.12,WUHU216WMR968SP,2013-06-14 05:46:00,
2013-06-13 22:51:00,49.1,39.2,30.24,WSW,255,0.0,0.0,67,0.00,,,0.12,WUHU216WMR968SP,2013-06-14 05:51:00,
2013-06-13 22:56:00,48.9,37.4,30.24,WSW,255,0.0,0.0,67,0.00,,,0.12,WUHU216WMR968SP,2013-06-14 05:56:00,
2013-06-13 23:01:00,48.7,37.4,30.24,WSW,255,0.0,0.0,67,0.00,,,0.12,WUHU216WMR968SP,2013-06-14 06:01:00,
2013-06-13 23:06:00,48.7,37.4,30.24,WSW,255,0.0,0.0,68,0.00,,,0.12,WUHU216WMR968SP,2013-06-14 06:06:00,
2013-06-13 23:11:00,48.7,37.4,30.24,WSW,255,0.0,0.0,68,0.00,,,0.12,WUHU216WMR968SP,2013-06-14 06:11:00,
2013-06-13 23:16:00,48.7,37.4,30.24,WSW,255,0.0,0.0,68,0.00,,,0.12,WUHU216WMR968SP,2013-06-14 06:16:00,
2013-06-13 23:21:00,48.7,39.2,30.24,WSW,255,0.0,0.0,69,0.00,,,0.12,WUHU216WMR968SP,2013-06-14 06:21:00,
2013-06-13 23:26:00,48.7,39.2,30.24,WSW,255,0.0,0.0,69,0.00,,,0.12,WUHU216WMR968SP,2013-06-14 06:26:00,
2013-06-13 23:31:00,48.7,39.2,30.24,WSW,255,0.0,0.0,69,0.00,,,0.12,WUHU216WMR968SP,2013-06-14 06:31:00,
2013-06-13 23:36:00,48.7,39.2,30.24,WSW,255,0.0,0.0,69,0.00,,,0.12,WUHU216WMR968SP,2013-06-14 06:36:00,
2013-06-13 23:41:00,48.9,39.2,30.24,WSW,255,0.0,0.0,70,0.00,,,0.12,WUHU216WMR968SP,2013-06-14 06:41:00,
2013-06-13 23:46:00,48.9,39.2,30.24,WSW,255,0.0,0.0,70,0.00,,,0.12,WUHU216WMR968SP,2013-06-14 06:46:00,
2013-06-13 23:51:00,48.7,39.2,30.24,WSW,255,0.0,0.0,70,0.00,,,0.12,WUHU216WMR968SP,2013-06-14 06:51:00,
2013-06-13 23:56:00,48.6,39.2,30.24,WSW,255,0.0,0.0,69,0.00,,,0.12,WUHU216WMR968SP,2013-06-14 06:56:00,